Location: Borovka
(49.7741°N, 14.5280°E)
Time: 09:35:00
(UTC+00:00)

LilacSat-2 - Pass Details

Date: 19 March 2026
Orbit: 412 x 424 km, 97.5° (Epoch: 20 April)

Event Time Altitude Azimuth Distance (km) Brightness Sun altitude
Rises 19:08:10 0° 208° (SSW) 2,391 ? -18.9°
Reaches altitude 10° 19:10:54 10° 234° (SW) 1,531 ? -19.3°
Maximum altitude 19:12:45 14° 269° (W) 1,299 ? -19.6°
Drops below altitude 10° 19:14:37 10° 303° (WNW) 1,539 ? -19.8°
Sets 19:17:23 0° 330° (NNW) 2,411 ? -20.2°
